Regional Weather Roundup
Issued by NWS Binghamton, NY

Home | Current Version | Previous Version | Text Only | Print | Product List | Glossary On
Versions: 1 2 3 4 5 6 7 8 9 10 11 12 13 14 15 16 17 18 19 20 21 22 23 24 25 26 27 28 29 30 31 32 33 34 35 36 37 38 39 40 41 42 43 44 45 46 47 48 49 50
000
ASUS41 KBGM 310410
RWRBGM
RWRBGM
BINGHAMTON REGIONAL WEATHER ROUNDUP
NATIONAL WEATHER SERVICE BINGHAMTON NY
1200 AM EDT MON AUG 31 2015

Note: "fair" indicates few or no clouds below 12,000 feet with no
significant weather and/or obstructions to visibility.

* = Station(s) that does not report precipitation, such as rain,
snow, etc, also no thunder or fog.

!NYZ009-015>018-022>025-036-037-044>046-055>057-062-310500
...CENTRAL NEW YORK...

CITY           SKY/WX    TMP DP  RH WIND       PRES   REMARKS
BINGHAMTON     PTCLDY    67  64  90 MISG      30.08F
CORTLAND       FAIR      66  64  94 CALM      30.08S
DANSVILLE      PTCLDY    68  65  90 CALM      30.06F
ELMIRA         PTCLDY    64  64 100 CALM      30.06S FOG
ITHACA         CLEAR     63  63 100 CALM      30.08F FOG
HORNELL        CLEAR     64  63  94 CALM      30.12S FOG
MONTICELLO     CLOUDY    70  66  88 CALM      30.10S
NORWICH        CLEAR     64  63  94 CALM      30.07F
ONEONTA        CLEAR     64  64 100 CALM      30.09S
PENN YAN       CLEAR     67  65  93 CALM      30.06S FOG
ROME           CLEAR     64  62  93 CALM      30.05S
SIDNEY         PTCLDY    70  70 100 CALM      30.07S FOG
SYRACUSE       PTCLDY    67  66  97 SE3       30.02F
$$

!PAZ038>040-043-044-047-048-072-310500
...NORTHEAST PENNSYLVANIA...

CITY           SKY/WX    TMP DP  RH WIND       PRES   REMARKS
HAZLETON       CLOUDY    70  66  88 CALM      30.15R
SCRANTON       MOCLDY    74  65  73 SW5       30.07S
TOWANDA*       CLEAR     66  66 100 MISG      30.08S
$$
&&
KEY
WCI = WIND CHILL INDEX
VSB = VISIBILITY
HX  = HEAT INDEX
$$



USA.gov is the U.S. government's official web portal to all federal, state and local government web resources and services.